カタログに戻る

STARLINK-4191

運用中通信VLEO
NORAD 52860·PAYLOAD·🇺🇸 United States

打ち上げ Jun 17, 2022 から Cape Canaveral Space Force Station

Loading…

次のパス (今後24時間)

TLE

最新Source: CelesTrak SupGP

元期: Sep 14, 2026, 21:56 UTC

1 52860C 22062AG  26257.91437500  .00005033  00000+0  14402-3 0  2575
2 52860  53.1576 243.5687 0001277  97.6981 132.1371 15.35393466    16

AllMySatでSTARLINK-4191をリアルタイム追跡

Download on the App Store